Location: Olsztyn
(53.7767°N, 20.4765°E)
Time: 08:52:02
(UTC+01:00)

Transit 4A - Pass Details

Date: 04 October 2022
Orbit: 871 x 972 km, 66.8° (Epoch: 06 December)

Event Time Altitude Azimuth Distance (km) Brightness Sun altitude
Exits shadow 02:24:50 22° 331° (NNW) 1,857 9.6 -35.0°
Maximum altitude 02:26:13 24° 351° (N) 1,770 9.7 -34.8°
Drops below altitude 10° 02:30:58 10° 45° (NE) 2,554 11.0 -34.4°
Sets 02:33:57 0° 59° (ENE) 3,483 11.8 -34.1°
